Aeroporto :
LOGIN :

Iscrizione | Disclaimer

   EN    FR    IT 

 










Sommario :    VFR   VFR Marginale   IFR   IFR Intensivo   IFR Molto Intensivo
Visibilità : 
Base nubi : 
>= 8 km
>= 3000ft
5 / 8 km
1000 / 3000 ft
1500m / 5 km
500 / 1000 ft
800 / 1500m
200 / 500 ft
< 800m
< 200 ft
Simboli :   Temporali  Nebbia  Neve Forte  Precipitazioni Forti  Vento > 20 kt
SIGMETs :   Varie  Temporali  Ghiacco  Turbolenza  Onda orograficha  Ceneri Vulcaniche







- Altitudine del aeroporto : 538 ft
- Codice IATA : TNF
- Carte del aeroporto


LFPN - Toussus Le Noble

ULTIMO METAR :
  • 181800Z AUTO 17002KT CAVOK 04/01 Q1022 NOSIG

METARs OBSOLETI :
  • 181730Z AUTO 16002KT CAVOK 05/01 Q1022 NOSIG
  • 181700Z AUTO 15004KT CAVOK 06/02 Q1022 NOSIG
  • 181630Z AUTO 15005KT CAVOK 07/02 Q1022 NOSIG
  • 181600Z AUTO 14007KT CAVOK 07/02 Q1022 NOSIG
  • 181530Z AUTO 14006KT 9999 FEW017 07/02 Q1022 NOSIG

TAF TAF LFPN
Valido dal 18 a 18 ore il 19 a 03 ore UTC


181700Z 1818/1903 16004KT CAVOK
TEMPO 1820/1903 3000 BR
ATIS : +33 1 39 56 54 70
Nessun NOTAM noto per questo aeroporto.



MetMap, La meteo Aeronautica in un colpo d'occhio ! - Copyright ORBIFLY Dicembre 2007 - Disclaimer

ORBIFLY MET'MAP TEAM :

Programmazione e sviluppo : Alexandra Zaïnal
Concezione e sviluppo : Baudouin d'Aumeries
Co-Programmazione e sviluppo : Marc-Olivier Méhu
Supporto tecnico e logistico : Manuel Goepfert
Aiuto per la traduzione : Arnaldo La Scala

Contatto : metmap@orbifly.com




FONTI E CREDITI :

   NOAA